Wind_Speed
7 6 5 3 4 6 7 7 7 6 6 9 11 9 12 12 12 10 8 8 11 15 16 15 16 18 23 22 24 24 23 13 3 2 9 11 10 12 10 19 19 16 11 13 12
10 8 6 4 2 3 4 5 5 5 5 6 9 9 9 11 13 16 12 10 10 12 15 19 14 18 10 34 19 19 24 2 2 4 9 10 10 12 12 16 13 9 9 11 10
10 10 8 6 4 2 1 3 3 3 4 5 6 8 9 10 13 12 9 8 9 9 14 11 12 9 17 24 14 20 15 0 8 6 6 8 8 10 11 11 10 11 15 12 14
8 7 8 8 6 4 2 1 0 2 3 5 6 5 7 9 10 9 8 8 8 7 10 4 6 14 26 9 18 22 4 3 9 8 6 8 8 8 9 10 11 13 13 11 13
8 8 7 7 6 5 3 3 2 2 2 3 5 4 6 8 8 10 8 7 10 5 6 5 20 15 15 11 16 12 3 10 12 10 8 6 7 9 7 8 10 11 13 13 13
8 7 6 5 5 4 3 3 5 5 3 2 2 2 3 6 6 10 9 7 6 5 1 4 8 8 6 5 11 12 4 7 12 10 10 8 5 8 9 8 9 11 11 11 11
8 7 6 5 4 4 3 3 4 7 5 4 2 1 2 7 4 7 10 9 6 5 2 6 1 4 4 10 10 4 6 6 8 9 11 7 7 3 9 10 10 11 11 11 10
9 8 7 6 5 5 4 4 5 7 8 5 3 3 4 4 3 4 8 8 7 5 4 3 2 3 7 7 15 15 16 8 5 5 7 6 6 4 5 9 11 11 11 11 11
10 9 10 8 8 7 7 6 7 8 8 8 6 4 5 6 4 4 6 8 9 7 5 5 6 9 7 11 12 6 5 8 10 6 3 2 7 8 3 7 10 10 11 10 10
10 10 11 11 10 10 9 9 9 10 10 10 9 8 8 9 7 6 6 8 9 8 6 9 11 4 8 8 7 3 7 4 4 4 4 9 6 5 2 2 6 10 11 11 10
5 7 9 9 10 10 10 10 10 10 11 13 13 12 10 10 9 8 5 6 7 7 7 14 11 14 15 7 6 12 14 7 7 2 4 3 10 2 2 1 1 2 6 9 9
4 5 4 4 4 5 6 7 9 11 12 14 12 12 11 10 10 9 6 6 7 9 10 12 5 12 9 13 3 6 5 11 6 1 2 17 12 6 2 1 3 4 5 5 6
3 3 3 3 4 3 3 3 3 5 8 8 8 7 9 9 10 9 6 6 6 5 11 6 12 15 14 4 4 6 10 4 9 6 6 2 8 4 4 7 6 7 7 9 9
5 4 4 3 4 3 4 4 3 3 4 5 6 6 9 10 10 9 8 7 6 5 10 12 7 11 9 10 13 6 11 15 2 9 11 13 12 5 1 9 4 7 7 7 9
8 7 7 7 6 5 5 4 3 3 4 2 1 6 6 8 7 9 8 8 7 7 6 7 8 8 8 9 9 12 15 12 13 5 6 14 12 27 8 4 10 6 3 5 3
10 10 9 9 9 9 8 7 4 3 6 3 3 3 4 4 4 5 5 7 7 7 7 6 6 5 5 7 7 10 4 16 14 12 3 14 4 10 15 8 6 9 4 4 7
14 13 11 10 11 11 10 10 8 6 5 7 3 5 6 6 4 5 5 4 5 5 4 4 7 7 5 4 4 7 13 9 9 5 9 7 4 10 12 2 13 13 9 2 4
20 18 16 16 14 14 14 13 10 4 7 18 9 9 7 7 7 6 7 8 7 6 6 3 9 9 10 7 5 6 7 5 4 4 6 11 4 14 21 22 20 15 11 7 7
23 23 23 21 20 19 18 15 13 8 15 17 13 12 10 9 9 10 11 11 11 9 7 4 7 12 6 8 7 6 11 8 11 9 6 2 10 15 16 12 5 13 4 8 9
24 24 24 25 24 24 23 17 22 25 23 12 14 12 10 11 15 13 14 14 15 14 14 14 15 12 15 10 12 11 11 8 8 3 3 6 10 18 14 8 20 28 11 8 12
25 26 23 26 26 26 22 19 22 29 20 22 20 17 13 14 17 15 14 15 16 18 18 18 17 8 20 14 14 13 12 11 18 17 10 5 13 10 17 16 15 26 22 11 10
24 27 22 24 25 25 24 22 31 29 19 25 24 23 25 21 16 18 13 19 29 23 23 22 22 16 17 17 14 14 10 14 12 11 11 13 1 11 14 20 30 30 27 18 16
23 26 22 23 23 25 25 30 30 24 25 27 27 27 30 28 28 29 19 32 34 31 25 27 24 22 19 11 15 22 19 23 20 16 17 14 7 15 19 27 37 42 37 23 22
22 24 24 25 26 26 27 31 30 27 28 29 26 31 25 25 28 28 29 37 37 32 27 24 24 25 19 18 16 7 18 20 23 20 16 17 21 19 20 20 30 43 31 23 25
24 29 24 27 30 30 31 32 27 30 29 29 28 30 28 32 32 31 33 35 42 35 32 32 33 31 31 31 36 23 20 19 19 20 27 22 26 24 30 35 38 52 41 27 29
27 26 26 28 30 30 32 33 31 33 33 30 32 34 36 34 34 39 41 38 37 43 34 36 37 36 37 37 38 45 41 31 25 30 28 28 38 40 35 48 52 55 46 35 34
26 28 29 30 29 32 36 38 37 37 35 32 36 34 34 37 35 36 35 35 37 39 38 39 37 38 40 41 43 41 45 47 44 37 35 34 33 27 44 54 57 55 50 45 43
Wind_Direction
197 186 178 137 84 54 61 71 85 88 99 114 126 120 109 106 108 116 111 114 92 87 91 94 106 89 100 93 81 74 72 99 263 353 72 78 69 56 136 170 167 161 151 146 156
216 217 215 200 150 77 37 54 74 84 92 101 133 141 129 114 114 111 112 105 105 87 92 98 99 111 96 53 73 83 80 332 102 63 86 95 95 85 104 148 171 170 180 165 160
216 218 223 225 220 169 53 21 71 93 95 105 123 152 141 138 134 122 104 109 104 91 93 109 166 141 100 83 63 59 69 181 76 81 78 98 103 112 114 131 150 159 164 168 151
209 214 220 222 223 217 185 309 83 126 103 109 119 148 150 155 148 142 122 103 124 105 83 92 159 73 88 83 94 85 131 134 88 90 93 109 127 130 138 139 146 157 163 159 146
204 203 211 205 212 218 201 184 212 217 130 119 126 151 155 170 167 171 158 142 139 108 64 63 350 50 16 52 61 97 47 93 82 71 84 98 130 143 146 151 154 162 159 155 149
200 193 191 191 190 197 190 188 183 207 205 156 131 134 147 173 174 185 181 185 170 157 152 79 126 119 52 96 88 70 95 59 72 77 80 85 130 164 164 169 159 156 162 159 155
212 208 203 207 207 217 207 203 193 194 214 206 190 180 180 183 196 183 189 187 196 182 229 94 168 153 276 96 80 102 65 33 64 54 60 55 79 147 172 179 177 175 181 174 171
224 223 225 224 230 243 244 237 213 210 212 221 226 241 223 199 205 189 179 174 198 202 171 102 265 159 112 118 127 216 195 147 74 24 64 55 84 75 180 194 191 187 191 188 184
238 234 239 241 243 246 251 242 234 226 227 230 232 230 243 218 220 188 169 174 188 197 189 180 170 168 212 186 191 227 355 66 106 342 28 12 91 68 60 201 206 201 202 204 206
236 243 243 246 248 250 248 248 240 237 238 241 248 244 230 223 229 214 192 185 185 171 157 136 166 180 252 280 19 321 52 317 313 234 357 16 16 62 40 105 197 203 206 207 210
224 231 240 239 241 242 247 247 248 246 247 246 250 255 240 224 233 232 216 193 172 154 157 125 94 290 293 51 57 29 30 349 281 311 3 72 314 129 134 360 180 180 191 202 209
174 180 189 195 210 222 231 240 243 251 250 249 251 250 241 229 233 235 217 212 185 167 124 87 48 335 297 319 343 71 309 320 360 298 233 175 205 300 174 347 299 306 280 246 222
165 169 180 177 183 180 187 201 218 244 243 246 240 237 226 216 224 230 225 221 215 190 134 172 220 242 273 219 115 6 281 321 25 31 13 321 1 281 260 316 296 282 275 280 275
205 199 199 198 203 210 208 215 221 220 239 245 241 220 222 222 218 222 220 215 213 199 168 186 245 257 232 187 143 328 260 258 226 294 356 11 360 7 69 346 317 301 288 284 281
219 216 212 211 206 213 212 216 211 226 261 265 282 221 215 218 209 218 218 215 213 200 197 170 227 226 225 201 200 199 274 235 223 207 355 299 273 323 9 53 320 290 316 312 300
229 229 223 216 214 215 214 213 210 209 278 280 229 216 197 189 199 191 213 219 217 211 208 225 219 227 227 223 228 215 108 68 73 61 338 282 13 300 285 168 180 285 321 332 334
230 231 232 229 227 224 225 227 218 221 273 267 226 219 209 202 202 201 205 210 209 206 203 231 250 264 251 262 180 155 112 48 319 259 283 256 321 314 15 209 270 294 287 261 321
236 236 235 238 237 236 233 229 221 130 265 259 245 222 219 221 222 222 222 214 205 202 206 296 307 267 253 254 246 182 163 187 180 257 311 317 247 221 234 256 288 289 245 235 290
236 238 239 240 239 242 240 234 212 222 211 245 248 255 243 239 234 234 236 233 229 224 235 149 282 261 263 242 240 230 225 209 240 260 278 276 238 286 281 310 273 267 289 229 252
234 233 236 241 243 244 243 237 225 232 238 247 233 240 227 240 241 245 248 239 240 235 233 219 212 261 252 245 249 242 224 223 281 296 213 246 271 243 270 254 292 303 295 258 262
241 236 229 234 237 241 244 234 234 250 237 236 232 209 244 209 263 250 252 256 236 241 233 236 240 229 266 246 252 245 247 244 197 205 235 260 252 259 258 252 268 286 271 267 250
240 241 234 235 236 237 235 231 238 245 235 239 235 237 232 215 213 247 223 246 258 238 240 240 242 244 261 284 275 235 233 270 246 234 239 203 43 234 263 290 279 277 278 283 274
239 245 235 235 237 238 236 237 245 246 237 238 237 237 236 237 234 216 206 237 242 254 243 245 249 249 251 246 264 291 279 242 213 221 220 219 235 259 284 275 269 268 266 266 266
235 240 233 234 236 241 243 245 247 243 245 244 244 246 246 243 243 242 232 250 248 255 255 250 245 234 216 201 218 254 254 263 241 235 247 236 221 242 261 249 269 271 264 259 260
233 235 242 235 234 234 239 245 246 250 242 246 245 247 243 241 239 245 245 246 260 252 254 250 251 247 245 219 211 224 236 248 262 240 224 221 217 214 250 241 251 261 269 269 263
243 245 241 242 238 238 243 248 246 247 247 246 242 245 244 246 244 240 243 249 254 264 257 253 257 255 253 248 233 233 235 236 246 227 234 242 226 219 252 244 245 249 269 271 265
244 243 241 242 239 240 241 241 242 246 255 246 250 249 251 249 250 255 259 260 257 260 260 260 257 256 256 252 252 248 245 249 251 246 256 259 256 248 249 256 260 264 269 273 271
Height
5898 5899 5900 5901 5901 5900 5900 5899 5898 5898 5898 5899 5899 5899 5900 5899 5900 5900 5901 5902 5902 5901 5900 5900 5899 5902 5902 5902 5900 5900 5902 5907 5907 5903 5902 5901 5901 5899 5900 5905 5906 5908 5911 5912 5913
5899 5899 5900 5901 5902 5902 5901 5901 5900 5900 5900 5900 5901 5901 5901 5902 5902 5902 5904 5904 5903 5902 5901 5902 5899 5901 5905 5898 5904 5901 5902 5909 5906 5904 5903 5904 5905 5905 5906 5907 5909 5912 5913 5915 5916
5899 5899 5900 5900 5901 5903 5902 5902 5902 5901 5901 5901 5901 5902 5903 5904 5904 5905 5905 5906 5906 5904 5904 5904 5899 5901 5894 5900 5909 5906 5912 5909 5908 5906 5906 5905 5906 5908 5909 5910 5911 5912 5914 5916 5919
5898 5898 5899 5900 5901 5902 5903 5903 5902 5902 5902 5902 5902 5902 5903 5905 5908 5907 5907 5907 5908 5907 5907 5907 5894 5890 5897 5901 5906 5910 5915 5910 5910 5909 5908 5908 5909 5910 5911 5912 5914 5915 5917 5920 5921
5898 5898 5899 5900 5901 5901 5903 5904 5903 5902 5903 5903 5903 5903 5904 5905 5907 5907 5908 5909 5910 5910 5910 5909 5899 5903 5892 5905 5911 5914 5916 5913 5913 5913 5912 5911 5911 5913 5914 5915 5916 5918 5920 5922 5924
5897 5898 5898 5899 5901 5901 5903 5903 5904 5903 5903 5904 5904 5904 5904 5905 5906 5907 5908 5910 5911 5912 5913 5911 5911 5911 5913 5914 5916 5918 5919 5916 5916 5916 5915 5915 5914 5915 5916 5918 5919 5920 5922 5924 5926
5897 5898 5899 5900 5901 5901 5902 5904 5904 5904 5904 5905 5905 5904 5905 5905 5906 5907 5908 5910 5911 5913 5914 5913 5912 5913 5912 5911 5919 5922 5921 5920 5919 5918 5919 5918 5917 5916 5918 5920 5921 5923 5924 5926 5928
5896 5897 5899 5899 5900 5901 5902 5903 5904 5905 5905 5905 5906 5906 5905 5906 5906 5907 5908 5909 5911 5912 5914 5915 5915 5919 5916 5916 5917 5917 5914 5916 5920 5921 5920 5922 5921 5920 5920 5921 5923 5924 5926 5928 5929
5895 5896 5898 5899 5899 5900 5901 5902 5904 5905 5905 5905 5906 5907 5906 5906 5907 5906 5908 5909 5911 5912 5914 5916 5916 5914 5910 5911 5917 5919 5917 5919 5921 5923 5922 5923 5922 5922 5924 5924 5925 5926 5927 5929 5930
5894 5895 5896 5897 5898 5899 5900 5901 5902 5904 5904 5905 5905 5907 5907 5906 5906 5907 5908 5909 5910 5912 5914 5916 5915 5917 5917 5920 5919 5923 5922 5922 5922 5921 5922 5922 5923 5924 5926 5926 5926 5927 5929 5930 5931
5892 5893 5895 5896 5897 5898 5899 5900 5902 5903 5903 5904 5905 5904 5906 5907 5907 5907 5908 5910 5911 5912 5914 5915 5917 5918 5919 5916 5920 5923 5923 5923 5922 5922 5923 5926 5924 5925 5926 5928 5928 5929 5930 5930 5931
5892 5893 5894 5894 5895 5896 5896 5898 5899 5900 5901 5902 5903 5903 5905 5906 5908 5908 5909 5911 5911 5912 5914 5917 5922 5917 5916 5915 5924 5926 5927 5925 5924 5925 5925 5919 5930 5926 5925 5927 5928 5929 5930 5932 5932
5892 5892 5893 5894 5895 5895 5896 5897 5897 5898 5900 5900 5901 5902 5904 5906 5907 5908 5910 5911 5911 5912 5913 5918 5922 5920 5920 5922 5925 5929 5926 5926 5924 5925 5926 5924 5929 5927 5925 5925 5927 5927 5929 5930 5932
5891 5892 5893 5894 5895 5895 5896 5897 5897 5898 5899 5900 5900 5902 5903 5904 5906 5908 5909 5912 5912 5913 5913 5917 5921 5919 5920 5921 5925 5931 5925 5926 5928 5928 5926 5926 5927 5927 5924 5925 5927 5927 5927 5929 5930
5889 5890 5891 5892 5894 5895 5896 5896 5897 5899 5899 5901 5900 5901 5902 5905 5906 5907 5908 5910 5912 5913 5915 5916 5918 5918 5919 5920 5923 5924 5920 5922 5924 5927 5929 5930 5926 5926 5921 5924 5927 5928 5928 5928 5929
5887 5888 5889 5891 5892 5894 5895 5896 5897 5899 5898 5900 5901 5901 5903 5904 5905 5906 5908 5910 5911 5913 5914 5916 5916 5918 5919 5919 5920 5921 5923 5925 5927 5929 5934 5931 5934 5925 5922 5923 5930 5929 5930 5929 5929
5885 5886 5887 5888 5890 5891 5893 5894 5897 5898 5900 5899 5900 5901 5902 5903 5905 5906 5908 5909 5911 5913 5914 5915 5917 5918 5919 5919 5920 5921 5923 5927 5931 5933 5933 5931 5933 5930 5923 5929 5928 5928 5930 5930 5930
5882 5883 5884 5886 5887 5889 5890 5893 5896 5898 5903 5897 5898 5900 5902 5903 5904 5906 5907 5909 5910 5912 5912 5916 5918 5916 5918 5919 5920 5920 5923 5928 5931 5934 5932 5932 5932 5931 5930 5928 5928 5925 5926 5929 5929
5877 5879 5880 5882 5883 5885 5887 5890 5894 5895 5897 5895 5896 5897 5900 5901 5904 5904 5906 5908 5909 5910 5912 5916 5918 5915 5916 5917 5919 5920 5921 5926 5926 5929 5933 5936 5931 5926 5924 5925 5925 5922 5924 5926 5927
5870 5873 5875 5877 5879 5880 5883 5886 5886 5886 5889 5893 5894 5897 5900 5900 5901 5902 5903 5905 5907 5908 5909 5911 5912 5914 5914 5915 5917 5918 5920 5924 5926 5928 5930 5932 5931 5923 5923 5924 5923 5921 5923 5924 5925
5863 5865 5869 5870 5872 5875 5878 5881 5881 5881 5885 5888 5890 5892 5898 5902 5901 5900 5901 5903 5903 5904 5906 5908 5910 5914 5909 5913 5914 5916 5917 5920 5921 5924 5928 5931 5924 5921 5922 5922 5920 5918 5917 5921 5923
5856 5858 5863 5864 5867 5869 5871 5875 5873 5875 5880 5881 5883 5887 5888 5891 5895 5900 5900 5902 5895 5898 5901 5903 5904 5907 5909 5910 5910 5912 5917 5917 5917 5922 5923 5925 5926 5920 5918 5918 5914 5912 5914 5918 5919
5850 5851 5856 5858 5861 5863 5865 5866 5867 5871 5872 5874 5876 5879 5880 5884 5886 5888 5893 5887 5889 5892 5893 5895 5898 5902 5905 5910 5912 5909 5911 5911 5913 5917 5920 5924 5928 5918 5916 5911 5907 5905 5908 5914 5914
5845 5846 5849 5851 5853 5856 5858 5859 5861 5864 5865 5867 5870 5870 5875 5878 5879 5882 5884 5878 5881 5884 5886 5890 5892 5893 5898 5904 5904 5904 5904 5903 5905 5910 5914 5917 5919 5920 5910 5908 5898 5895 5901 5906 5907
5838 5837 5841 5844 5846 5848 5850 5851 5855 5855 5858 5859 5863 5864 5868 5868 5871 5873 5875 5876 5870 5876 5879 5881 5882 5885 5887 5892 5892 5893 5897 5898 5900 5900 5903 5908 5908 5910 5898 5898 5896 5888 5892 5899 5901
5831 5833 5835 5835 5839 5841 5842 5844 5847 5847 5849 5852 5854 5855 5856 5860 5862 5860 5861 5865 5869 5864 5870 5873 5874 5875 5878 5880 5884 5882 5884 5886 5889 5891 5891 5892 5894 5896 5890 5884 5883 5881 5883 5891 5894
5823 5825 5827 5828 5831 5833 5832 5833 5835 5837 5840 5843 5844 5847 5849 5849 5853 5855 5857 5858 5859 5858 5860 5862 5864 5864 5867 5868 5869 5875 5877 5876 5877 5879 5880 5881 5883 5884 5875 5871 5870 5873 5876 5880 5882